Portada
METAR-TAF:

METAR-TAF

Aeroports :

Thimphu, Índia

latitud: 27-24-32N, longitud: 89-25-14E, altitud: 2235 m

Observació

L'informe es va fer fa 12 minuts, a les 06:30 UTC
Vent 13 kt del Sud/Sud-Est amb ràfegues de 26 kt
Temperatura 21°C
Humitat 25%
Pressió 1019 hPa
Visibilitat 10 km o més
Núvols disperses a una alçada de 3000 ft
Núvols disperses a una alçada de 8000 ft

METAR: VQPR 080630Z 15013G26KT 9999 SCT030 SCT080 21/00 Q1019

Hora: 12:42 (06:42 UTC)


TAF: manca

Observacions i pronòstics meteorològics de més de 4000 aeroports (METAR i TAF).

Les estacions disponibles són els punts grocs i vermells al mapa.

Posi el ratolí al punt desitjat per veure el nom de l'estació.

Feu clic per veure les observacions i els pronòstics meteorològics.

Per canviar el mapa: feu clic els botons verds amb una creu de color negre per apropar; al botó verd amb un guió per allunyar la imatge; o en les fletxes verdes per a mapes adjacents.


METAR-TAF: